TimeEDT,TemperatureF,Dew PointF,Humidity,Sea Level PressureIn,VisibilityMPH,Wind Direction,Wind SpeedMPH,Gust SpeedMPH,PrecipitationIn,Events,Conditions,WindDirDegrees,DateUTC
12:53 AM,61.0,57.9,90,30.01,6.0,South,9.2,-,0.01,,Overcast,190,2012-10-04 04:53:00
1:53 AM,62.1,59.0,90,30.02,5.0,SW,8.1,-,0.12,Rain,Rain,220,2012-10-04 05:53:00
2:39 AM,62.6,59.0,88,30.03,7.0,West,9.2,17.3,0.08,Rain,Light Rain,270,2012-10-04 06:39:00
2:53 AM,62.1,57.9,86,30.03,10.0,West,6.9,-,0.08,,Overcast,270,2012-10-04 06:53:00
3:04 AM,62.6,59.0,88,30.03,10.0,West,6.9,-,N/A,,Overcast,260,2012-10-04 07:04:00
3:14 AM,62.6,57.2,82,30.03,10.0,West,5.8,-,N/A,,Overcast,260,2012-10-04 07:14:00
3:37 AM,62.6,57.2,82,30.03,10.0,WSW,4.6,-,N/A,,Overcast,240,2012-10-04 07:37:00
3:53 AM,62.1,59.0,90,30.03,8.0,SSW,4.6,-,N/A,,Overcast,210,2012-10-04 07:53:00
4:05 AM,60.8,59.0,94,30.03,7.0,South,3.5,-,N/A,,Overcast,190,2012-10-04 08:05:00
4:12 AM,60.8,59.0,94,30.03,7.0,Calm,Calm,-,N/A,,Overcast,0,2012-10-04 08:12:00
4:22 AM,62.6,59.0,88,30.03,6.0,Calm,Calm,-,N/A,,Overcast,0,2012-10-04 08:22:00
4:49 AM,62.6,59.0,88,30.03,4.0,SW,4.6,-,N/A,,Overcast,220,2012-10-04 08:49:00
4:53 AM,62.1,59.0,90,30.04,4.0,SSW,4.6,-,0.01,Rain,Light Rain,210,2012-10-04 08:53:00
5:19 AM,62.6,57.2,82,30.04,6.0,SW,8.1,-,0.03,Rain,Rain,230,2012-10-04 09:19:00
5:53 AM,61.0,59.0,93,30.04,4.0,South,3.5,-,0.04,Rain,Light Rain,170,2012-10-04 09:53:00
6:19 AM,60.8,59.0,94,30.04,5.0,South,4.6,-,0.01,,Overcast,190,2012-10-04 10:19:00
6:29 AM,62.6,59.0,88,30.04,5.0,SW,4.6,-,0.01,,Overcast,220,2012-10-04 10:29:00
6:44 AM,62.6,57.2,82,30.04,8.0,SW,8.1,-,0.01,,Overcast,230,2012-10-04 10:44:00
6:53 AM,62.1,57.9,86,30.04,9.0,SSW,5.8,-,0.01,,Overcast,210,2012-10-04 10:53:00
7:53 AM,60.1,57.0,90,30.04,8.0,South,3.5,-,N/A,,Overcast,190,2012-10-04 11:53:00
8:53 AM,61.0,57.0,87,30.04,7.0,South,5.8,-,N/A,,Clear,180,2012-10-04 12:53:00
9:53 AM,63.0,57.9,84,30.05,10.0,SSW,12.7,-,N/A,,Clear,200,2012-10-04 13:53:00
10:53 AM,66.0,57.0,73,30.05,10.0,SSW,15.0,-,N/A,,Clear,210,2012-10-04 14:53:00
11:53 AM,69.1,57.0,65,30.04,10.0,SSW,17.3,21.9,N/A,,Clear,210,2012-10-04 15:53:00
12:53 PM,71.1,55.0,57,30.04,10.0,SW,15.0,20.7,N/A,,Clear,220,2012-10-04 16:53:00
1:53 PM,73.9,53.1,48,30.01,10.0,SW,18.4,24.2,N/A,,Clear,220,2012-10-04 17:53:00
2:53 PM,75.9,50.0,40,29.99,10.0,SSW,20.7,27.6,N/A,,Clear,210,2012-10-04 18:53:00
3:53 PM,75.9,50.0,40,29.97,10.0,SSW,21.9,28.8,N/A,,Mostly Cloudy,200,2012-10-04 19:53:00
4:53 PM,75.0,52.0,44,29.96,10.0,SSW,15.0,-,N/A,,Mostly Cloudy,210,2012-10-04 20:53:00
6:53 PM,68.0,60.1,76,29.99,10.0,West,12.7,-,0.00,,Overcast,260,2012-10-04 22:53:00
7:53 PM,64.9,57.0,75,30.00,10.0,West,10.4,19.6,0.00,,Overcast,270,2012-10-04 23:53:00
9:53 PM,61.0,53.1,75,30.03,10.0,WSW,13.8,-,0.00,,Overcast,240,2012-10-05 01:53:00
10:53 PM,61.0,48.9,64,30.04,10.0,West,11.5,18.4,N/A,,Overcast,270,2012-10-05 02:53:00
11:53 PM,59.0,46.9,64,30.05,10.0,West,11.5,21.9,0.00,Rain,Light Rain,260,2012-10-05 03:53:00